[[{"header":{"parameterUnit":"m.s-1","parameterCategory":1,"la1":30.2991,"la2":30.254,"lo1":-89.0895,"lo2":-89.0444,"dy":0.0017,"dx":0.0017,"nx":28,"ny":28,"refTime":"2024-09-01T21:00:00:Z","depth":0,"parameterNumber":2,"parameterNumberName":"U-component_of_WINDS"},"data":[0,0,0,0,0,0,0,0,0,0,0,0,0,0,0,0,0,0,0,0,0,0,0,0,0,0,0,0,0,0,0,0,0,0,0,0,0,0,0,0,0,0,0,0,0,0,0,0,0,0,0,0,0,0,0,0,0,0,-3.3672,-3.3673,0,-3.381,-3.3812,-3.3813,-3.3767,-3.3764,-3.3761,-3.3758,-3.3909,-3.3916,-3.3922,0,0,0,0,0,0,0,0,0,0,0,0,0,-3.338,-3.3385,-3.3672,-3.3674,-3.3675,-3.381,-3.3812,-3.3814,-3.3768,-3.3764,-3.376,-3.3757,-3.3907,-3.3915,-3.3923,0,0,0,0,0,0,0,0,0,0,0,0,0,-3.3511,-3.3387,-3.3672,-3.3668,-3.3669,-3.3809,-3.3812,-3.3814,-3.3769,-3.3764,-3.3759,-3.3755,-3.3904,-3.3914,-3.3924,-3.4078,0,0,-3.3955,-3.396,0,0,0,0,0,0,0,0,-3.3504,-3.3522,-3.3667,-3.3669,-3.367,-3.3767,-3.3764,-3.3903,-3.377,-3.3731,-3.3758,-3.3753,-3.3866,-3.3879,-3.3915,-3.4085,-3.4092,-3.3956,-3.3963,-3.3967,-3.397,0,0,0,0,0,0,0,-3.3495,-3.3516,-3.3727,-3.3669,-3.3671,-3.3664,-3.3678,-3.379,-3.3823,-3.3734,-3.3731,-3.3748,-3.3866,-3.3905,-3.3918,-3.4094,-3.3956,-3.3965,-3.3971,-3.3975,-3.4402,-3.4407,0,0,0,0,0,0,-3.3483,-3.3509,-3.3722,-3.3731,-3.3574,-3.3673,-3.3688,-3.374,-3.3821,-3.3829,-3.3751,-3.3745,-3.389,-3.3906,-3.3923,-3.411,-3.3967,-3.3976,-3.3982,-3.4397,-3.4403,-3.4408,0,0,0,0,0,0,-3.3477,-3.3503,-3.3717,-3.3619,-3.3646,-3.3683,-3.3742,-3.3746,-3.3785,-3.3834,-3.3841,-3.3785,-3.3887,-3.3909,-3.404,-3.4115,-3.3981,-3.399,-3.439,-3.4398,-3.4406,-3.4485,0,0,0,0,0,0,-3.3469,-3.3501,-3.3557,-3.362,-3.3651,-3.3828,-3.3746,-3.3752,-3.3801,-3.3794,-3.3867,-3.3875,-3.3885,-3.4025,-3.405,-3.4127,-3.3998,-3.4384,-3.4394,-3.4403,-3.4476,-3.4494,-3.451,0,0,0,0,0,-3.3459,-3.3575,-3.356,-3.3586,-3.3721,-3.3832,-3.385,-3.3856,-3.3807,-3.3866,-3.3899,-3.3873,-3.4103,-3.4039,-3.4067,-3.4147,-3.4379,-3.4391,-3.4402,-3.4468,-3.4491,-3.451,0,0,0,0,0,0,-3.3521,-3.3583,-3.3567,-3.3706,-3.3764,-3.3824,-3.3897,-3.388,-3.3955,-3.3946,-3.3954,-3.3971,-3.4106,-3.4141,-3.4068,-3.4303,-3.4235,-3.4252,-3.4275,-3.4297,-3.4314,-3.4302,-3.4007,0,0,0,0,0,-3.355,-3.3632,-3.3683,-3.3802,-3.3831,-3.386,-3.3908,-3.3909,-3.397,-3.3995,-3.4037,-3.41,-3.4187,-3.4244,-3.4327,-3.4482,-3.4499,-3.4552,-3.4569,-3.4583,-3.4598,-3.4685,-3.471,-3.4447,-3.4447,-3.4446,0,0,-3.3613,-3.3657,-3.3708,-3.3815,-3.386,-3.3948,-3.388,-3.3976,-3.4042,-3.4011,-3.4136,-3.417,-3.4242,-3.4386,-3.4451,-3.4419,-3.4675,-3.4598,-3.4608,-3.4616,-3.4699,-3.4724,-3.4746,-3.4455,-3.4453,-3.4452,0,0,-3.3771,-3.3812,-3.3915,-3.3962,-3.403,-3.4049,-3.4074,-3.4138,-3.4158,-3.4284,-3.4263,-3.4345,-3.4494,-3.4546,-3.4593,-3.4776,-3.4756,-3.4804,-3.4893,-3.4978,-3.4999,-3.5017,-3.5084,-3.5108,-3.4819,-3.4819,-3.4819,0,-3.384,-3.3968,-3.3972,-3.4069,-3.4118,-3.4093,-3.42,-3.4247,-3.434,-3.4376,-3.4338,-3.4526,-3.4573,-3.4729,-3.4774,-3.4813,-3.4845,-3.4794,-3.4995,-3.5014,-3.5031,-3.5095,-3.512,-3.4824,-3.4824,-3.4823,-3.4822,0,-3.4051,-3.4141,-3.4217,-3.4305,-3.4364,-3.4466,-3.4489,-3.4548,-3.4546,-3.457,-3.4701,-3.4757,-3.4851,-3.4889,-3.4888,-3.5048,-3.5026,-3.4992,-3.4923,-3.5061,-3.5121,-3.5146,-3.4832,-3.483,-3.4828,-3.4827,0,0,-3.4248,-3.4339,-3.4367,-3.4407,-3.4483,-3.4554,-3.4658,-3.4748,-3.48,-3.4867,-3.4956,-3.5085,-3.5054,-3.5107,-3.5113,-3.5188,-3.5332,-3.5145,-3.5147,-3.5178,-3.5514,-3.5538,-3.5566,-3.532,-3.5325,-3.5328,-3.5508,0,-3.4412,-3.4589,-3.4597,-3.476,-3.4845,-3.4825,-3.4916,-3.4975,-3.5002,-3.5081,-3.5113,-3.5204,-3.5156,-3.5188,-3.5262,-3.5298,-3.5399,-3.5286,-3.5406,-3.541,-3.5386,-3.5597,-3.5623,-3.5789,-3.5532,-3.5536,-3.5539,0,-3.4625,-3.4696,-3.4867,-3.4933,-3.4969,-3.505,-3.5135,-3.521,-3.5279,-3.5294,-3.5355,-3.5351,-3.5462,-3.5391,-3.5545,-3.5468,-3.5519,-3.5545,-3.5552,-3.5562,-3.5481,-3.5614,-3.5843,-3.5867,-3.5575,-3.5573,-3.557,0,-3.4752,-3.4892,-3.5012,-3.5048,-3.5128,-3.5186,-3.5223,-3.5286,-3.5341,-3.5418,-3.5454,-3.5544,-3.5593,-3.5665,-3.5687,-3.5633,-3.5842,-3.5772,-3.586,-3.586,-3.5903,-3.59,-3.6143,-3.5938,-3.5937,-3.5937,-3.5936,0,-3.4933,-3.5038,-3.507,-3.5144,-3.5263,-3.5275,-3.5394,-3.5428,-3.5486,-3.5569,-3.556,-3.5639,-3.5664,-3.5749,-3.5769,-3.5895,-3.5918,-3.5936,-3.5939,-3.5936,-3.5933,-3.5968,-3.5957,-3.5943,-3.5942,-3.5941,-3.594,0,-3.5093,-3.5118,-3.5248,-3.5314,-3.5334,-3.5419,-3.5477,-3.5551,-3.5578,-3.5684,-3.571,-3.5754,-3.5854,-3.5884,-3.6006,-3.6019,-3.6168,-3.6161,-3.6143,-3.6143,-3.6229,-3.6221,-3.6502,-3.6541,-3.631,-3.6313,-3.6314,0,-3.5206,-3.5286,-3.5361,-3.5415,-3.5453,-3.5541,-3.5596,-3.5614,-3.5673,-3.576,-3.5824,-3.5923,-3.6002,-3.6165,-3.621,-3.6305,-3.63,-3.6393,-3.6314,-3.6309,-3.6302,-3.6297,-3.6306,-3.6407,-3.6409,-3.6411,-3.6413,0,-3.5404,-3.5413,-3.5492,-3.5577,-3.5644,-3.5712,-3.5778,-3.5824,-3.5852,-3.5921,-3.6021,-3.6083,-3.6208,-3.6307,-3.6404,-3.6446,-3.6436,-3.6438,-3.6463,-3.646,-3.6446,-3.6455,-3.6183,-3.643,-3.6429,-3.6427,-3.6426,-3.6426,-3.5544,-3.5615,-3.5679,-3.5769,-3.5821,-3.5884,-3.5956,-3.5993,-3.6077,-3.6176,-3.6184,-3.6294,-3.6367,-3.6494,-3.6543,-3.6632,-3.6606,-3.6642,-3.6652,-3.666,-3.6667,-3.6433,-3.665,-3.665,-3.6649,-3.6649,-3.6649,0,-3.5741,-3.5782,-3.5865,-3.5957,-3.6029,-3.6011,-3.6085,-3.6147,-3.6243,-3.631,-3.6388,-3.6508,-3.6605,-3.666,-3.6758,-3.682,-3.6818,-3.6845,-3.6841,-3.6851,-3.6685,-3.6653,-3.6845,-3.6845,-3.6845,-3.6845,-3.6845,-3.6845,-3.5852,-3.5972,-3.599,-3.6139,-3.618,-3.6286,-3.633,-3.639,-3.6443,-3.6575,-3.6655,-3.6689,-3.6752,-3.6856,-3.6947,-3.6961,-3.6998,-3.7028,-3.704,-3.6883,-3.6863,-3.6843,-3.6813,-3.7036,-3.7037,-3.7198,-3.72,-3.7201]},{"header":{"parameterUnit":"m.s-1","parameterCategory":1,"la1":30.2991,"la2":30.254,"lo1":-89.0895,"lo2":-89.0444,"dy":0.0017,"dx":0.0017,"nx":28,"ny":28,"refTime":"2024-09-01T21:00:00:Z","depth":0,"parameterNumber":3,"parameterNumberName":"V-component_of_WINDS"},"data":[0,0,0,0,0,0,0,0,0,0,0,0,0,0,0,0,0,0,0,0,0,0,0,0,0,0,0,0,0,0,0,0,0,0,0,0,0,0,0,0,0,0,0,0,0,0,0,0,0,0,0,0,0,0,0,0,0,0,2.0253,2.0254,0,2.0394,2.0396,2.0398,2.0499,2.05,2.0501,2.0502,2.0638,2.0641,2.0644,0,0,0,0,0,0,0,0,0,0,0,0,0,2.0059,2.0062,2.0252,2.0254,2.0256,2.0394,2.0396,2.0398,2.0499,2.05,2.0501,2.0502,2.0637,2.0641,2.0644,0,0,0,0,0,0,0,0,0,0,0,0,0,2.0166,2.0063,2.0252,2.0323,2.0331,2.0394,2.0396,2.0398,2.0499,2.05,2.0502,2.0503,2.0636,2.064,2.0645,2.0645,0,0,2.0658,2.0659,0,0,0,0,0,0,0,0,2.016,2.0173,2.0311,2.0319,2.0328,2.0431,2.0378,2.0481,2.0499,2.0435,2.0502,2.0503,2.0568,2.0578,2.0601,2.0651,2.0657,2.0658,2.0661,2.0662,2.0664,0,0,0,0,0,0,0,2.0152,2.0167,2.0308,2.0313,2.0323,2.0345,2.0362,2.0398,2.0492,2.0441,2.0448,2.0464,2.0572,2.0597,2.0605,2.0659,2.0658,2.0662,2.0664,2.0666,2.0713,2.0712,0,0,0,0,0,0,2.0135,2.0161,2.0304,2.0313,2.0245,2.0347,2.0366,2.0396,2.0492,2.0508,2.0463,2.0469,2.0589,2.06,2.061,2.0615,2.0662,2.0666,2.0669,2.0714,2.0713,2.0711,0,0,0,0,0,0,2.0131,2.0147,2.0298,2.0239,2.026,2.0349,2.0382,2.0398,2.0423,2.0509,2.0525,2.0472,2.059,2.0604,2.0635,2.0621,2.0668,2.0672,2.0716,2.0714,2.0712,2.0625,0,0,0,0,0,0,2.0125,2.0145,2.0148,2.0238,2.0263,2.0324,2.0382,2.04,2.0431,2.044,2.0521,2.0536,2.0592,2.0629,2.064,2.0628,2.0675,2.0717,2.0715,2.0713,2.063,2.0621,2.0613,0,0,0,0,0,2.0117,2.0117,2.0148,2.0165,2.027,2.0323,2.0337,2.0404,2.043,2.0432,2.0487,2.0533,2.0621,2.0631,2.0644,2.0633,2.0719,2.0716,2.0713,2.0634,2.0622,2.0613,0,0,0,0,0,0,2.0021,2.013,2.0166,2.0196,2.0249,2.034,2.0346,2.0391,2.0436,2.0442,2.0521,2.0538,2.056,2.06,2.0609,2.0637,2.0675,2.0675,2.061,2.0601,2.0592,2.0582,2.0679,0,0,0,0,0,2.0004,2.0041,2.0133,2.015,2.0176,2.0255,2.0281,2.0329,2.0387,2.0409,2.0466,2.0518,2.0557,2.0581,2.0622,2.0636,2.0653,2.0635,2.0626,2.0619,2.0617,2.0624,2.0616,2.0702,2.0702,2.0702,0,0,1.9967,2.0032,2.005,2.0132,2.018,2.0213,2.0274,2.0308,2.0332,2.0413,2.0447,2.049,2.0553,2.0574,2.0587,2.0608,2.0597,2.0615,2.0609,2.0611,2.062,2.0612,2.0605,2.07,2.07,2.07,0,0,1.9918,1.9972,1.9991,2.0037,2.0109,2.0162,2.0165,2.0249,2.0282,2.0317,2.0378,2.0406,2.0473,2.0514,2.0544,2.0507,2.055,2.0518,2.0473,2.0479,2.0472,2.0466,2.0451,2.0445,2.0516,2.0516,2.0516,0,1.9863,1.992,1.9994,2.0024,2.0056,2.0134,2.0151,2.0191,2.0271,2.029,2.0314,2.0397,2.0445,2.0476,2.0467,2.0489,2.0493,2.0509,2.0468,2.0463,2.0458,2.0444,2.0439,2.0511,2.0512,2.0512,2.0513,0,1.9847,1.9884,1.989,1.9968,2.0001,2.0024,2.0099,2.0123,2.0166,2.0215,2.0248,2.0308,2.0361,2.0372,2.0414,2.0408,2.0418,2.0453,2.0493,2.0445,2.0433,2.0428,2.0505,2.0506,2.0508,2.0509,0,0,1.9743,1.986,1.9861,1.9896,1.9979,2.0007,2.0032,2.0086,2.0104,2.0155,2.0176,2.0229,2.0262,2.0295,2.0342,2.0347,2.0311,2.0382,2.0384,2.0365,2.0304,2.0276,2.0269,2.034,2.034,2.0339,2.0298,0,1.9705,1.9758,1.9824,1.9852,1.9885,1.9957,1.9978,2.0029,2.0075,2.0107,2.0156,2.0192,2.0233,2.0254,2.0262,2.0314,2.03,2.0318,2.0357,2.0357,2.0338,2.0264,2.0235,2.0194,2.0294,2.0294,2.0293,0,1.967,1.9719,1.975,1.9828,1.9845,1.9863,1.9916,1.9947,2.0005,2.0037,2.0073,2.0124,2.015,2.0186,2.022,2.0231,2.025,2.0277,2.0277,2.0283,2.0322,2.0265,2.0183,2.0175,2.0287,2.0288,2.0288,0,1.9587,1.9661,1.969,1.9717,1.9809,1.982,1.9858,1.9918,1.9945,1.999,2.0008,2.0054,2.0079,2.0113,2.0173,2.0194,2.0199,2.0241,2.0224,2.0222,2.0222,2.0221,2.0139,2.0236,2.0236,2.0236,2.0236,0,1.9538,1.9554,1.9654,1.9671,1.9689,1.9763,1.9779,1.9823,1.9874,1.9899,1.9963,1.9983,2.0063,2.0091,2.0138,2.0157,2.0169,2.0193,2.0205,2.0187,2.0183,2.02,2.0203,2.0235,2.0235,2.0235,2.0236,0,1.945,1.9518,1.9553,1.9637,1.9658,1.9668,1.9738,1.9755,1.9804,1.9833,1.9844,1.992,1.9956,2.002,2.0075,2.0106,2.0115,2.0137,2.0096,2.0104,2.0082,2.0082,2.0008,2.0,2.0102,2.0101,2.01,0,1.9414,1.9428,1.9514,1.9536,1.9572,1.9606,1.9635,1.9707,1.9733,1.9798,1.9806,1.9848,1.9886,1.994,1.9997,2.0038,2.006,2.0031,2.0067,2.0047,2.0057,2.0055,2.0056,2.0023,2.0021,2.002,2.0019,0,1.9342,1.9374,1.9414,1.9465,1.9497,1.954,1.9585,1.9598,1.9679,1.9705,1.9744,1.9773,1.9829,1.9868,1.9917,1.9953,1.9998,2.0007,2.0005,1.9986,1.9961,1.9972,2.0072,2.0009,2.001,2.001,2.0011,2.0011,1.9278,1.9293,1.9355,1.9396,1.9438,1.9478,1.9498,1.9549,1.9584,1.9636,1.9675,1.9711,1.9764,1.9835,1.9868,1.9894,1.9915,1.9913,1.9912,1.991,1.9901,1.9958,1.9903,1.9904,1.9904,1.9904,1.9905,0,1.9207,1.925,1.9288,1.935,1.9381,1.9423,1.9474,1.9497,1.9528,1.9575,1.9611,1.9654,1.9692,1.9752,1.9794,1.9803,1.9824,1.9811,1.9811,1.9817,1.9881,1.9878,1.9793,1.9793,1.9793,1.9793,1.9793,1.9793,1.9174,1.9201,1.924,1.9286,1.9328,1.9365,1.9391,1.9427,1.9465,1.9511,1.9543,1.9583,1.9634,1.968,1.9715,1.9731,1.9742,1.9722,1.9745,1.9803,1.9813,1.9823,1.9821,1.9725,1.9725,1.9679,1.9678,1.9678]}]]